COSMOS 249 DEB, 14412

Orbit data source: Space-Track

COSMOS 249 DEB, 14412 is space debris in LEO originally from a launch on Sun, 20 Oct 1968 UTC launched from the Tyuratam Missile And Space Complex (TTMTR). Debris objects in space refer to the collection of defunct objects orbiting the Earth. Examples of debris include non-operational satellites, rocket bodies, and fragments generated from explosions, collisions, or faulty payload assembly.

Loading next visibility...
Identifier
14412, 1968-091CN
Orbit
LEO
Country
Flag of CISCIS
Related business
Manufacturer
Unknown
Mission
Spacecraft
Bus & Motor
Unknown
Mass
Unknown
Launch date (UTC)
1968-10-20 (58 years ago)
Launch vehicle
Unknown
Launch site
Tyuratam Missile And Space Complex (TTMTR)
Object type
Payload
Rocket body
Debris
Shape & HBR
Unknown shape, 0.1 m
Radar Cross Section
Medium (>0.1 m² and <1 m²)

Expand to show TLE details & history
Last TLE update: 2 days ago

TLE from 2 days ago
0 COSMOS 249 DEB
1 14412U 68091CN  26234.19663130  .00000713  00000-0  96843-3 0  9996
2 14412  62.2911 271.1823 0748021 346.1747  11.9710 12.84328012 95658
Epoch: 2026-08-22T04:43Z
TLE epoch observation values (Epoch: 2026-08-22T04:43:08.944Z)
Latitude
0.00002°
Longitude
-130.11546°
Altitude
764.186 km
Speed
7.74 km/s
True Right ascension
18h 04m 43s
True Declination
0° 00' 00"
Sunlit
Object was in full shadow at epoch
Visualization orbit readout
Latitude
Unknown
Longitude
Unknown
Altitude
Unknown
Speed
Unknown
Apparent Right ascension
Unknown
Apparent Declination
Unknown
Sunlit
N/A
Visualization observer readout
Local Sidereal Time
20:03:51
Azimuth
Unknown
Elevation
Unknown
Doppler factor
Unknown
Orbital elements
Apogee altitude
1,899.179 km
Perigee altitude
747.04 km
Semi-major axis
7,701.246 km
Eccentricity
0.0748
Inclination
62.2911°
RAAN
271.1823°
Arg. of periapsis
346.1747°
True anomaly
13.92671°
Mean anomaly
11.971°
Eccentric anomaly
12.93°
Mean motion
3.21145 °/min
Orbital period
112.1 mins
BSTAR
0.00096843
Loading maneuver chart data...
Computing Atmospheric mass density...

Documentation

Showing up to 5 results
|